カタログに戻る

STARLINK-11420

運用中通信VLEO
NORAD 62591·PAYLOAD·🇺🇸 United States

打ち上げ Jan 13, 2025 から Cape Canaveral Space Force Station

Loading…

次のパス (今後24時間)

TLE

最新Source: CelesTrak SupGP

元期: Sep 15, 2026, 02:33 UTC

1 62591C 25008E   26258.10673611 -.00013034  00000+0 -10117-3 0  2589
2 62591  43.0009  64.5507 0001749 275.5269  67.6564 15.70860755    14

AllMySatでSTARLINK-11420をリアルタイム追跡

Download on the App Store